ROA2036 SVMI-MHTG

Flight info

Callsign ROA2036
Flight time 3h 14m
Altitude 36000
Route BUTSA2 PBL UW52 UTKIV UP671 SPP UP543 MGA UA502 LIBIS LIBIS1A
Aircraft B738/M-SDE2E3FGHIRWXY/LB1

Departure

Time 2026-04-30 19:26
Airport Maiquetía Simón Bolívar International Airport (SVMI)

Arrival

Time 2026-04-30 22:41
Airport Toncontín Airport (MHTG)
Time Latitude Longitude Altitude Speed Heading
2026-04-30 19:08 10.59833 -67.00458 227 ft 0 kts 178°
2026-04-30 19:16 10.59845 -67.00458 227 ft 3 kts 178°
2026-04-30 19:16 10.59868 -67.00459 227 ft 3 kts 178°
2026-04-30 19:16 10.59910 -67.00458 229 ft 3 kts 220°
2026-04-30 19:17 10.59920 -67.00440 230 ft 3 kts 261°
2026-04-30 19:17 10.59923 -67.00415 228 ft 1 kts 268°
2026-04-30 19:22 10.59922 -67.00443 228 ft 4 kts 268°
2026-04-30 19:22 10.59917 -67.00605 229 ft 11 kts 268°
2026-04-30 19:23 10.59908 -67.00877 234 ft 15 kts 268°
2026-04-30 19:24 10.59901 -67.01104 238 ft 16 kts 268°
2026-04-30 19:24 10.59898 -67.01204 240 ft 12 kts 278°
2026-04-30 19:24 10.60062 -67.01243 240 ft 14 kts 358°
2026-04-30 19:25 10.60184 -67.01247 237 ft 8 kts 358°
2026-04-30 19:26 10.60220 -67.01046 232 ft 51 kts 88°
2026-04-30 19:26 10.60273 -66.99408 315 ft 160 kts 89°
2026-04-30 19:26 10.60335 -66.98272 955 ft 167 kts 80°
2026-04-30 19:27 10.60825 -66.95827 1995 ft 204 kts 79°
2026-04-30 19:27 10.61572 -66.92729 2699 ft 243 kts 62°
2026-04-30 19:28 10.62738 -66.91372 2982 ft 267 kts 39°
2026-04-30 19:28 10.66217 -66.90151 4422 ft 276 kts 360°
2026-04-30 19:29 10.70109 -66.90128 6010 ft 285 kts
2026-04-30 19:29 10.72103 -66.90072 6702 ft 290 kts
2026-04-30 19:30 10.78227 -66.89848 8952 ft 300 kts
2026-04-30 19:30 10.82266 -66.90672 10407 ft 310 kts 324°
2026-04-30 19:31 10.84320 -66.94599 10788 ft 347 kts 271°
2026-04-30 19:31 10.84327 -66.97125 10995 ft 365 kts 267°
2026-04-30 19:31 10.84214 -67.02382 12031 ft 377 kts 267°
2026-04-30 19:32 10.84174 -67.04979 12674 ft 378 kts 267°
2026-04-30 19:32 10.84148 -67.07615 13225 ft 383 kts 267°
2026-04-30 19:32 10.84132 -67.10330 13796 ft 386 kts 268°
2026-04-30 19:32 10.84120 -67.13077 14324 ft 389 kts 268°
2026-04-30 19:33 10.84110 -67.15832 14867 ft 391 kts 268°
2026-04-30 19:33 10.84099 -67.18610 15365 ft 394 kts 268°
2026-04-30 19:33 10.84016 -67.21409 15833 ft 397 kts 260°
2026-04-30 19:33 10.83410 -67.24144 16348 ft 396 kts 253°
2026-04-30 19:34 10.82640 -67.26841 16869 ft 398 kts 251°
2026-04-30 19:34 10.81834 -67.29556 17321 ft 402 kts 251°
2026-04-30 19:34 10.80225 -67.35069 18245 ft 408 kts 252°
2026-04-30 19:35 10.79438 -67.37841 18664 ft 409 kts 252°
2026-04-30 19:35 10.78665 -67.40598 19068 ft 412 kts 252°
2026-04-30 19:35 10.77883 -67.43409 19463 ft 414 kts 252°
2026-04-30 19:35 10.77130 -67.46127 19864 ft 415 kts 253°
2026-04-30 19:36 10.76364 -67.48898 20235 ft 418 kts 253°
2026-04-30 19:36 10.75573 -67.51758 20633 ft 420 kts 253°
2026-04-30 19:36 10.73993 -67.57465 21394 ft 424 kts 253°
2026-04-30 19:37 10.73190 -67.60362 21753 ft 427 kts 253°
2026-04-30 19:37 10.72396 -67.63224 22121 ft 428 kts 254°
2026-04-30 19:37 10.71585 -67.66148 22496 ft 430 kts 254°
2026-04-30 19:37 10.70770 -67.69086 22858 ft 432 kts 254°
2026-04-30 19:38 10.69952 -67.72033 23205 ft 434 kts 254°
2026-04-30 19:38 10.69129 -67.74997 23513 ft 436 kts 255°
2026-04-30 19:38 10.68315 -67.77927 23799 ft 438 kts 254°
2026-04-30 19:38 10.67512 -67.80815 24067 ft 439 kts 254°
2026-04-30 19:39 10.66730 -67.83626 24317 ft 441 kts 254°
2026-04-30 19:39 10.65881 -67.86630 24590 ft 443 kts 251°
2026-04-30 19:39 10.64536 -67.89415 24818 ft 445 kts 233°
2026-04-30 19:39 10.62503 -67.91813 25147 ft 444 kts 227°
2026-04-30 19:40 10.60529 -67.94000 25426 ft 445 kts 227°
2026-04-30 19:40 10.58432 -67.96332 25672 ft 448 kts 227°
2026-04-30 19:40 10.56339 -67.98695 25913 ft 450 kts 227°
2026-04-30 19:40 10.54258 -68.01073 26218 ft 450 kts 227°
2026-04-30 19:41 10.52177 -68.03461 26477 ft 452 kts 227°
2026-04-30 19:41 10.50198 -68.05945 26742 ft 454 kts 238°
2026-04-30 19:41 10.48984 -68.08849 27102 ft 454 kts 254°
2026-04-30 19:41 10.48564 -68.11975 27331 ft 459 kts 270°
2026-04-30 19:42 10.48738 -68.15161 27504 ft 463 kts 272°
2026-04-30 19:42 10.48994 -68.18382 27683 ft 465 kts 274°
2026-04-30 19:42 10.49266 -68.21575 27879 ft 468 kts 272°
2026-04-30 19:42 10.49538 -68.24870 28099 ft 469 kts 273°
2026-04-30 19:43 10.49797 -68.28181 28333 ft 470 kts 272°
2026-04-30 19:43 10.50043 -68.31506 28553 ft 472 kts 272°
2026-04-30 19:43 10.50278 -68.34838 28763 ft 473 kts 272°
2026-04-30 19:44 10.50660 -68.40396 29105 ft 476 kts 271°
2026-04-30 19:44 10.50888 -68.43751 29304 ft 477 kts 272°
2026-04-30 19:44 10.51117 -68.47125 29490 ft 479 kts 272°
2026-04-30 19:44 10.51347 -68.50497 29751 ft 478 kts 272°
2026-04-30 19:45 10.51578 -68.53864 30068 ft 476 kts 272°
2026-04-30 19:45 10.51807 -68.57209 30467 ft 472 kts 272°
2026-04-30 19:45 10.52033 -68.60520 30851 ft 468 kts 272°
2026-04-30 19:45 10.52257 -68.63810 31181 ft 466 kts 272°
2026-04-30 19:46 10.52479 -68.67087 31471 ft 465 kts 272°
2026-04-30 19:46 10.52701 -68.70361 31778 ft 463 kts 272°
2026-04-30 19:46 10.52922 -68.73618 32116 ft 460 kts 272°
2026-04-30 19:46 10.53140 -68.76854 32465 ft 458 kts 272°
2026-04-30 19:47 10.53358 -68.80080 32800 ft 455 kts 272°
2026-04-30 19:47 10.53501 -68.82203 33005 ft 454 kts 272°
2026-04-30 19:47 10.53788 -68.86476 33420 ft 452 kts 272°
2026-04-30 19:47 10.54001 -68.89638 33899 ft 445 kts 272°
2026-04-30 19:48 10.54209 -68.92737 34281 ft 441 kts 272°
2026-04-30 19:48 10.54416 -68.95820 34464 ft 442 kts 273°
2026-04-30 19:48 10.54644 -68.98939 34590 ft 444 kts 273°
2026-04-30 19:48 10.54893 -69.02068 34805 ft 443 kts 274°
2026-04-30 19:49 10.55148 -69.05187 35080 ft 441 kts 274°
2026-04-30 19:49 10.55650 -69.11329 35598 ft 438 kts 274°
2026-04-30 19:49 10.55899 -69.14426 35787 ft 438 kts 274°
2026-04-30 19:50 10.56378 -69.20449 35827 ft 441 kts 274°
2026-04-30 19:50 10.56869 -69.26661 35837 ft 437 kts 274°
2026-04-30 19:51 10.57331 -69.32519 35841 ft 434 kts 274°
2026-04-30 19:51 10.57812 -69.38635 35840 ft 432 kts 274°
2026-04-30 19:52 10.58285 -69.44650 35838 ft 431 kts 274°
2026-04-30 19:52 10.58761 -69.50732 35840 ft 432 kts 274°
2026-04-30 19:53 10.59238 -69.56849 35843 ft 433 kts 274°
2026-04-30 19:53 10.59711 -69.62919 35835 ft 436 kts 274°
2026-04-30 19:54 10.60184 -69.68997 35830 ft 439 kts 274°
2026-04-30 19:54 10.60620 -69.74988 35835 ft 441 kts 273°
2026-04-30 19:55 10.61024 -69.81165 35824 ft 443 kts 273°
2026-04-30 19:55 10.61427 -69.87370 35831 ft 444 kts 273°
2026-04-30 19:56 10.61839 -69.93633 35827 ft 444 kts 273°
2026-04-30 19:56 10.62243 -69.99748 35819 ft 445 kts 273°
2026-04-30 19:57 10.62636 -70.05705 35815 ft 445 kts 273°
2026-04-30 19:57 10.63041 -70.11864 35815 ft 445 kts 273°
2026-04-30 19:58 10.63442 -70.17981 35819 ft 444 kts 273°
2026-04-30 19:58 10.63848 -70.24196 35823 ft 443 kts 273°
2026-04-30 19:59 10.64253 -70.30413 35822 ft 440 kts 273°
2026-04-30 20:00 10.64850 -70.39623 35819 ft 436 kts 273°
2026-04-30 20:00 10.65238 -70.45768 35820 ft 434 kts 273°
2026-04-30 20:01 10.65782 -70.54620 35828 ft 431 kts 272°
2026-04-30 20:01 10.66151 -70.60635 35821 ft 430 kts 272°
2026-04-30 20:02 10.66689 -70.69408 35822 ft 429 kts 272°
2026-04-30 20:03 10.67230 -70.78262 35810 ft 429 kts 272°
2026-04-30 20:03 10.67593 -70.84233 35815 ft 429 kts 272°
2026-04-30 20:04 10.67958 -70.90228 35804 ft 431 kts 271°
2026-04-30 20:05 10.68502 -70.99254 35805 ft 434 kts 271°
2026-04-30 20:05 10.68997 -71.08431 35796 ft 436 kts 270°
2026-04-30 20:06 10.69201 -71.14574 35797 ft 438 kts 270°
2026-04-30 20:06 10.69399 -71.20771 35792 ft 439 kts 270°
2026-04-30 20:07 10.69606 -71.26890 35791 ft 439 kts 270°
2026-04-30 20:08 10.69928 -71.36114 35785 ft 439 kts 270°
2026-04-30 20:08 10.70140 -71.42174 35788 ft 439 kts 270°
2026-04-30 20:09 10.70349 -71.48210 35788 ft 438 kts 270°
2026-04-30 20:09 10.70664 -71.57376 35780 ft 437 kts 270°
2026-04-30 20:10 10.70975 -71.66524 35791 ft 436 kts 270°
2026-04-30 20:11 10.71275 -71.75412 35795 ft 437 kts 270°
2026-04-30 20:11 10.71478 -71.81463 35792 ft 437 kts 270°
2026-04-30 20:12 10.71785 -71.90689 35794 ft 438 kts 270°
2026-04-30 20:13 10.71986 -71.96785 35799 ft 438 kts 270°
2026-04-30 20:13 10.72190 -72.02995 35787 ft 438 kts 270°
2026-04-30 20:14 10.72393 -72.09189 35792 ft 438 kts 270°
2026-04-30 20:14 10.72592 -72.15330 35803 ft 437 kts 270°
2026-04-30 20:15 10.72787 -72.21385 35799 ft 436 kts 270°
2026-04-30 20:15 10.72963 -72.26861 35819 ft 435 kts 270°
2026-04-30 20:16 10.73148 -72.32653 35825 ft 434 kts 270°
2026-04-30 20:16 10.73341 -72.38743 35814 ft 433 kts 271°
2026-04-30 20:17 10.73531 -72.44793 35835 ft 431 kts 270°
2026-04-30 20:17 10.73718 -72.50778 35813 ft 431 kts 270°
2026-04-30 20:18 10.73906 -72.56822 35845 ft 429 kts 270°
2026-04-30 20:18 10.74090 -72.62772 35846 ft 428 kts 271°
2026-04-30 20:19 10.74276 -72.68763 35855 ft 427 kts 271°
2026-04-30 20:19 10.74915 -72.74625 35852 ft 426 kts 277°
2026-04-30 20:20 10.75826 -72.80550 35857 ft 425 kts 277°
2026-04-30 20:20 10.76717 -72.86409 35842 ft 425 kts 277°
2026-04-30 20:21 10.77566 -72.92181 35847 ft 425 kts 277°
2026-04-30 20:21 10.78418 -72.98077 35851 ft 425 kts 277°
2026-04-30 20:22 10.79254 -73.03890 35841 ft 425 kts 277°
2026-04-30 20:22 10.80075 -73.09607 35858 ft 426 kts 277°
2026-04-30 20:23 10.80901 -73.15364 35860 ft 426 kts 277°
2026-04-30 20:23 10.81728 -73.21133 35852 ft 427 kts 277°
2026-04-30 20:24 10.82578 -73.27065 35899 ft 427 kts 277°
2026-04-30 20:24 10.83418 -73.32945 35904 ft 428 kts 277°
2026-04-30 20:25 10.84695 -73.41864 35949 ft 424 kts 277°
2026-04-30 20:26 10.85965 -73.50808 35949 ft 435 kts 277°
2026-04-30 20:26 10.87228 -73.59696 35957 ft 438 kts 277°
2026-04-30 20:27 10.88939 -73.71761 35960 ft 440 kts 276°
2026-04-30 20:28 10.90642 -73.83771 35938 ft 440 kts 276°
2026-04-30 20:30 10.92606 -73.97754 35884 ft 439 kts 276°
2026-04-30 20:31 10.95126 -74.15707 35785 ft 432 kts 276°
2026-04-30 20:32 10.97293 -74.30415 35782 ft 432 kts 278°
2026-04-30 20:33 10.98789 -74.39325 35776 ft 433 kts 277°
2026-04-30 20:34 11.00252 -74.48176 35784 ft 436 kts 277°
2026-04-30 20:35 11.01738 -74.57255 35782 ft 438 kts 277°
2026-04-30 20:35 11.03237 -74.66443 35778 ft 440 kts 277°
2026-04-30 20:36 11.04237 -74.72576 35783 ft 440 kts 277°
2026-04-30 20:37 11.05681 -74.81452 35782 ft 440 kts 277°
2026-04-30 20:37 11.06638 -74.87340 35774 ft 440 kts 277°
2026-04-30 20:38 11.07636 -74.93495 35787 ft 439 kts 277°
2026-04-30 20:38 11.08607 -74.99484 35785 ft 438 kts 277°
2026-04-30 20:39 11.10083 -75.08605 35800 ft 437 kts 277°
2026-04-30 20:40 11.11554 -75.17716 35784 ft 435 kts 277°
2026-04-30 20:40 11.12511 -75.23651 35789 ft 434 kts 277°
2026-04-30 20:41 11.13975 -75.32749 35788 ft 432 kts 277°
2026-04-30 20:41 11.14931 -75.38703 35787 ft 431 kts 277°
2026-04-30 20:42 11.15881 -75.44625 35801 ft 431 kts 277°
2026-04-30 20:43 11.17308 -75.53534 35792 ft 430 kts 277°
2026-04-30 20:43 11.18267 -75.59527 35789 ft 430 kts 277°
2026-04-30 20:44 11.19705 -75.68533 35787 ft 429 kts 277°
2026-04-30 20:45 11.21603 -75.80444 35794 ft 429 kts 277°
2026-04-30 20:45 11.22559 -75.86458 35789 ft 430 kts 277°
2026-04-30 20:46 11.24462 -75.98450 35791 ft 430 kts 277°
2026-04-30 20:47 11.25892 -76.07482 35785 ft 430 kts 277°
2026-04-30 20:48 11.27314 -76.16486 35781 ft 431 kts 277°
2026-04-30 20:48 11.28266 -76.22519 35794 ft 431 kts 277°
2026-04-30 20:49 11.29217 -76.28560 35792 ft 432 kts 277°
2026-04-30 20:50 11.30647 -76.37650 35795 ft 434 kts 277°
2026-04-30 20:50 11.31602 -76.43735 35794 ft 434 kts 277°
2026-04-30 20:51 11.32555 -76.49813 35789 ft 435 kts 277°
2026-04-30 20:51 11.33977 -76.58901 35788 ft 434 kts 277°
2026-04-30 20:52 11.34927 -76.64978 35795 ft 433 kts 277°
2026-04-30 20:53 11.36340 -76.74040 35792 ft 432 kts 277°
2026-04-30 20:53 11.37249 -76.79875 35789 ft 431 kts 277°
2026-04-30 20:54 11.38650 -76.88886 35798 ft 430 kts 277°
2026-04-30 20:55 11.40031 -76.97795 35796 ft 432 kts 277°
2026-04-30 20:55 11.40961 -77.03803 35797 ft 433 kts 277°
2026-04-30 20:56 11.42355 -77.12818 35796 ft 434 kts 277°
2026-04-30 20:57 11.43758 -77.21910 35799 ft 436 kts 277°
2026-04-30 20:57 11.44696 -77.28000 35798 ft 436 kts 277°
2026-04-30 20:58 11.46089 -77.37061 35794 ft 437 kts 277°
2026-04-30 20:58 11.47052 -77.42953 35791 ft 437 kts 280°
2026-04-30 20:59 11.49251 -77.51429 35798 ft 438 kts 283°
2026-04-30 21:00 11.52446 -77.63276 35804 ft 436 kts 282°
2026-04-30 21:01 11.54786 -77.72226 35801 ft 435 kts 282°
2026-04-30 21:02 11.57111 -77.81150 35802 ft 435 kts 282°
2026-04-30 21:02 11.58654 -77.87080 35802 ft 434 kts 282°
2026-04-30 21:03 11.60202 -77.93030 35801 ft 434 kts 282°
2026-04-30 21:03 11.61742 -77.98952 35810 ft 434 kts 282°
2026-04-30 21:04 11.63278 -78.04867 35803 ft 434 kts 282°
2026-04-30 21:04 11.65576 -78.13726 35802 ft 433 kts 282°
2026-04-30 21:05 11.67069 -78.19487 35803 ft 433 kts 282°
2026-04-30 21:05 11.68605 -78.25419 35806 ft 433 kts 282°
2026-04-30 21:06 11.70142 -78.31362 35805 ft 433 kts 282°
2026-04-30 21:06 11.71678 -78.37308 35804 ft 433 kts 282°
2026-04-30 21:07 11.73191 -78.43169 35807 ft 433 kts 282°
2026-04-30 21:07 11.74719 -78.49090 35808 ft 433 kts 282°
2026-04-30 21:08 11.76147 -78.54632 35812 ft 434 kts 282°
2026-04-30 21:08 11.77679 -78.60585 35810 ft 434 kts 282°
2026-04-30 21:09 11.79204 -78.66510 35808 ft 434 kts 282°
2026-04-30 21:09 11.80726 -78.72400 35814 ft 434 kts 282°
2026-04-30 21:10 11.82292 -78.78283 35808 ft 434 kts 282°
2026-04-30 21:10 11.83856 -78.84131 35813 ft 434 kts 282°
2026-04-30 21:11 11.85441 -78.90079 35811 ft 434 kts 282°
2026-04-30 21:11 11.87010 -78.95984 35813 ft 434 kts 282°
2026-04-30 21:12 11.88551 -79.01795 35815 ft 435 kts 282°
2026-04-30 21:12 11.90078 -79.07559 35816 ft 435 kts 282°
2026-04-30 21:13 11.91643 -79.13471 35809 ft 435 kts 282°
2026-04-30 21:13 11.93173 -79.19252 35811 ft 434 kts 282°
2026-04-30 21:14 11.94746 -79.25207 35812 ft 434 kts 282°
2026-04-30 21:14 11.96310 -79.31130 35812 ft 434 kts 282°
2026-04-30 21:15 11.97880 -79.37082 35814 ft 434 kts 282°
2026-04-30 21:15 11.99435 -79.42982 35822 ft 433 kts 282°
2026-04-30 21:16 12.00998 -79.48918 35818 ft 433 kts 282°
2026-04-30 21:16 12.02562 -79.54863 35818 ft 433 kts 282°
2026-04-30 21:17 12.04124 -79.60805 35815 ft 432 kts 282°
2026-04-30 21:17 12.05673 -79.66706 35819 ft 432 kts 282°
2026-04-30 21:18 12.07228 -79.72633 35818 ft 432 kts 282°
2026-04-30 21:18 12.08521 -79.77566 35818 ft 432 kts 282°
2026-04-30 21:19 12.10076 -79.83503 35821 ft 432 kts 282°
2026-04-30 21:19 12.11626 -79.89430 35818 ft 432 kts 282°
2026-04-30 21:20 12.13175 -79.95356 35819 ft 432 kts 282°
2026-04-30 21:20 12.14725 -80.01290 35820 ft 432 kts 282°
2026-04-30 21:21 12.16259 -80.07169 35818 ft 432 kts 282°
2026-04-30 21:22 12.18573 -80.16050 35820 ft 432 kts 282°
2026-04-30 21:23 12.21663 -80.27926 35820 ft 432 kts 282°
2026-04-30 21:23 12.23980 -80.36847 35831 ft 432 kts 282°
2026-04-30 21:24 12.25519 -80.42779 35822 ft 432 kts 282°
2026-04-30 21:24 12.27043 -80.48655 35821 ft 430 kts 282°
2026-04-30 21:25 12.29341 -80.57532 35820 ft 429 kts 282°
2026-04-30 21:26 12.31589 -80.66227 35824 ft 427 kts 282°
2026-04-30 21:27 12.33866 -80.75046 35824 ft 426 kts 282°
2026-04-30 21:27 12.35367 -80.80867 35824 ft 426 kts 282°
2026-04-30 21:28 12.37626 -80.89637 35829 ft 426 kts 282°
2026-04-30 21:29 12.39893 -80.98453 35830 ft 427 kts 282°
2026-04-30 21:30 12.43670 -81.13167 35833 ft 430 kts 282°
2026-04-30 21:31 12.47472 -81.28012 35832 ft 432 kts 282°
2026-04-30 21:32 12.49746 -81.36912 35838 ft 432 kts 282°
2026-04-30 21:32 12.51266 -81.42865 35839 ft 432 kts 282°
2026-04-30 21:33 12.53530 -81.51744 35841 ft 433 kts 282°
2026-04-30 21:34 12.55040 -81.57673 35831 ft 432 kts 282°
2026-04-30 21:34 12.57313 -81.66610 35826 ft 432 kts 282°
2026-04-30 21:35 12.58113 -81.72650 35833 ft 427 kts 267°
2026-04-30 21:35 12.57576 -81.78679 35830 ft 425 kts 262°
2026-04-30 21:36 12.56949 -81.84630 35832 ft 426 kts 262°
2026-04-30 21:37 12.55743 -81.96676 35838 ft 426 kts 263°
2026-04-30 21:37 12.55151 -82.02717 35843 ft 427 kts 263°
2026-04-30 21:38 12.54558 -82.08747 35843 ft 427 kts 263°
2026-04-30 21:38 12.53962 -82.14797 35845 ft 427 kts 263°
2026-04-30 21:39 12.53365 -82.20841 35845 ft 427 kts 263°
2026-04-30 21:39 12.52767 -82.26878 35844 ft 428 kts 263°
2026-04-30 21:40 12.52165 -82.32942 35843 ft 428 kts 263°
2026-04-30 21:40 12.51563 -82.38995 35841 ft 427 kts 263°
2026-04-30 21:41 12.50959 -82.45049 35839 ft 427 kts 262°
2026-04-30 21:41 12.50354 -82.51104 35845 ft 428 kts 262°
2026-04-30 21:42 12.49751 -82.57124 35844 ft 428 kts 262°
2026-04-30 21:42 12.49143 -82.63182 35844 ft 428 kts 262°
2026-04-30 21:43 12.48533 -82.69244 35845 ft 428 kts 262°
2026-04-30 21:43 12.47921 -82.75316 35844 ft 428 kts 262°
2026-04-30 21:44 12.47319 -82.81374 35843 ft 429 kts 263°
2026-04-30 21:44 12.46758 -82.87413 35849 ft 429 kts 263°
2026-04-30 21:45 12.46198 -82.93487 35847 ft 429 kts 263°
2026-04-30 21:45 12.45633 -82.99575 35847 ft 429 kts 263°
2026-04-30 21:46 12.45063 -83.05662 35845 ft 430 kts 263°
2026-04-30 21:46 12.44491 -83.11750 35844 ft 430 kts 263°
2026-04-30 21:47 12.43916 -83.17849 35840 ft 430 kts 263°
2026-04-30 21:47 12.43344 -83.23905 35844 ft 430 kts 263°
2026-04-30 21:48 12.42767 -83.30004 35843 ft 431 kts 263°
2026-04-30 21:48 12.42189 -83.36103 35845 ft 431 kts 263°
2026-04-30 21:49 12.41608 -83.42205 35844 ft 431 kts 263°
2026-04-30 21:49 12.41026 -83.48310 35839 ft 431 kts 263°
2026-04-30 21:50 12.40443 -83.54417 35843 ft 431 kts 263°
2026-04-30 21:50 12.39858 -83.60524 35838 ft 431 kts 263°
2026-04-30 21:51 12.39272 -83.66627 35839 ft 431 kts 263°
2026-04-30 21:51 12.38683 -83.72738 35839 ft 431 kts 263°
2026-04-30 21:52 12.38095 -83.78840 35837 ft 431 kts 263°
2026-04-30 21:52 12.37505 -83.84944 35836 ft 431 kts 263°
2026-04-30 21:53 12.36916 -83.91013 35834 ft 431 kts 263°
2026-04-30 21:53 12.36323 -83.97119 35830 ft 431 kts 263°
2026-04-30 21:54 12.35725 -84.03262 35830 ft 431 kts 263°
2026-04-30 21:54 12.35129 -84.09365 35828 ft 431 kts 263°
2026-04-30 21:55 12.34536 -84.15432 35828 ft 431 kts 263°
2026-04-30 21:55 12.33936 -84.21545 35824 ft 431 kts 263°
2026-04-30 21:56 12.33336 -84.27654 35829 ft 432 kts 263°
2026-04-30 21:56 12.32732 -84.33779 35830 ft 432 kts 263°
2026-04-30 21:57 12.32128 -84.39901 35823 ft 433 kts 263°
2026-04-30 21:57 12.31525 -84.45992 35829 ft 433 kts 263°
2026-04-30 21:58 12.30917 -84.52118 35825 ft 433 kts 263°
2026-04-30 21:58 12.30308 -84.58250 35824 ft 433 kts 263°
2026-04-30 21:59 12.29697 -84.64380 35825 ft 433 kts 263°
2026-04-30 22:00 12.28779 -84.73566 35825 ft 433 kts 263°
2026-04-30 22:00 12.27867 -84.82664 35820 ft 433 kts 263°
2026-04-30 22:01 12.27261 -84.88685 35821 ft 433 kts 263°
2026-04-30 22:01 12.26645 -84.94802 35820 ft 433 kts 263°
2026-04-30 22:02 12.26034 -85.00852 35823 ft 433 kts 263°
2026-04-30 22:02 12.25411 -85.07000 35823 ft 433 kts 263°
2026-04-30 22:03 12.24790 -85.13121 35814 ft 433 kts 263°
2026-04-30 22:03 12.24169 -85.19233 35813 ft 433 kts 263°
2026-04-30 22:04 12.23557 -85.25234 35815 ft 433 kts 263°
2026-04-30 22:05 12.22626 -85.34346 35805 ft 433 kts 263°
2026-04-30 22:05 12.22002 -85.40433 35807 ft 433 kts 263°
2026-04-30 22:06 12.21476 -85.45562 35789 ft 433 kts 262°
2026-04-30 22:06 12.20429 -85.55730 35797 ft 433 kts 262°
2026-04-30 22:07 12.19903 -85.60825 35787 ft 434 kts 262°
2026-04-30 22:07 12.19268 -85.66962 35783 ft 434 kts 262°
2026-04-30 22:08 12.18634 -85.73083 35779 ft 435 kts 262°
2026-04-30 22:08 12.17999 -85.79199 35779 ft 435 kts 262°
2026-04-30 22:09 12.17358 -85.85354 35772 ft 435 kts 262°
2026-04-30 22:09 12.16721 -85.91457 35763 ft 435 kts 262°
2026-04-30 22:10 12.16077 -85.97614 35756 ft 436 kts 262°
2026-04-30 22:10 12.15436 -86.03739 35752 ft 436 kts 262°
2026-04-30 22:11 12.14615 -86.12994 35725 ft 438 kts 274°
2026-04-30 22:11 12.15312 -86.16034 35758 ft 442 kts 290°
2026-04-30 22:12 12.16774 -86.18812 35746 ft 447 kts 303°
2026-04-30 22:12 12.18869 -86.21131 35742 ft 453 kts 318°
2026-04-30 22:12 12.21327 -86.23029 35756 ft 455 kts 321°
2026-04-30 22:13 12.26444 -86.26707 35771 ft 457 kts 322°
2026-04-30 22:13 12.31640 -86.30434 35760 ft 458 kts 321°
2026-04-30 22:14 12.36837 -86.34233 35759 ft 459 kts 321°
2026-04-30 22:14 12.41998 -86.38042 35765 ft 460 kts 321°
2026-04-30 22:15 12.47158 -86.41858 35763 ft 460 kts 321°
2026-04-30 22:15 12.52340 -86.45689 35763 ft 459 kts 321°
2026-04-30 22:16 12.57512 -86.49514 35759 ft 458 kts 321°
2026-04-30 22:17 12.67794 -86.57124 35475 ft 460 kts 320°
2026-04-30 22:17 12.70382 -86.59041 34937 ft 460 kts 321°
2026-04-30 22:17 12.75516 -86.62844 33897 ft 456 kts 321°
2026-04-30 22:18 12.78081 -86.64744 33357 ft 453 kts 321°
2026-04-30 22:18 12.83144 -86.68497 32410 ft 445 kts 321°
2026-04-30 22:19 12.88100 -86.72175 31516 ft 438 kts 321°
2026-04-30 22:19 12.90560 -86.74002 31085 ft 434 kts 322°
2026-04-30 22:19 12.95422 -86.77612 30209 ft 429 kts 322°
2026-04-30 22:20 12.97826 -86.79415 29739 ft 427 kts 322°
2026-04-30 22:20 13.02575 -86.83006 28755 ft 420 kts 322°
2026-04-30 22:20 13.04921 -86.84782 28310 ft 417 kts 322°
2026-04-30 22:21 13.07245 -86.86539 27854 ft 414 kts 322°
2026-04-30 22:21 13.09555 -86.88285 27406 ft 410 kts 322°
2026-04-30 22:21 13.11844 -86.90015 26967 ft 407 kts 324°
2026-04-30 22:21 13.14114 -86.91730 26544 ft 404 kts 324°
2026-04-30 22:22 13.16353 -86.93411 26099 ft 402 kts 326°
2026-04-30 22:22 13.18641 -86.95107 25661 ft 399 kts 326°
2026-04-30 22:22 13.20854 -86.96740 25249 ft 398 kts 326°
2026-04-30 22:22 13.23100 -86.98394 24807 ft 395 kts 326°
2026-04-30 22:23 13.25318 -87.00031 24394 ft 394 kts 326°
2026-04-30 22:23 13.27524 -87.01661 23961 ft 393 kts 326°
2026-04-30 22:23 13.29746 -87.03302 23515 ft 392 kts 326°
2026-04-30 22:23 13.31949 -87.04930 23057 ft 390 kts 326°
2026-04-30 22:24 13.34139 -87.06552 22614 ft 388 kts 326°
2026-04-30 22:24 13.36326 -87.08172 22171 ft 385 kts 326°
2026-04-30 22:24 13.38495 -87.09779 21751 ft 382 kts 326°
2026-04-30 22:24 13.40649 -87.11376 21331 ft 380 kts 326°
2026-04-30 22:25 13.42757 -87.12938 20926 ft 378 kts 326°
2026-04-30 22:25 13.44887 -87.14518 20514 ft 376 kts 326°
2026-04-30 22:25 13.47003 -87.16084 20087 ft 375 kts 326°
2026-04-30 22:25 13.49113 -87.17649 19722 ft 373 kts 327°
2026-04-30 22:26 13.53312 -87.20768 18896 ft 371 kts 326°
2026-04-30 22:26 13.55399 -87.22317 18486 ft 369 kts 326°
2026-04-30 22:26 13.57476 -87.23858 18072 ft 368 kts 326°
2026-04-30 22:27 13.59541 -87.25391 17625 ft 366 kts 327°
2026-04-30 22:27 13.61769 -87.26588 17201 ft 359 kts 346°
2026-04-30 22:27 13.66639 -87.27120 16487 ft 349 kts 359°
2026-04-30 22:28 13.71450 -87.27334 15723 ft 345 kts 358°
2026-04-30 22:28 13.73842 -87.27453 15329 ft 343 kts 358°
2026-04-30 22:29 13.80801 -87.27842 14232 ft 341 kts 358°
2026-04-30 22:29 13.83172 -87.27980 13843 ft 341 kts 357°
2026-04-30 22:30 13.92102 -87.26545 12343 ft 329 kts 20°
2026-04-30 22:31 13.98560 -87.24353 11296 ft 321 kts 20°
2026-04-30 22:32 14.04280 -87.21612 10697 ft 298 kts 46°
2026-04-30 22:32 14.07190 -87.18788 10227 ft 291 kts 36°
2026-04-30 22:33 14.12881 -87.17508 9542 ft 286 kts 352°
2026-04-30 22:33 14.16500 -87.19034 9127 ft 280 kts 324°
2026-04-30 22:34 14.19685 -87.23690 8759 ft 260 kts 284°
2026-04-30 22:35 14.19909 -87.27252 8532 ft 242 kts 260°
2026-04-30 22:36 14.16856 -87.32811 7607 ft 210 kts 212°
2026-04-30 22:36 14.15607 -87.33497 7379 ft 198 kts 195°
2026-04-30 22:37 14.11805 -87.33310 6780 ft 177 kts 153°
2026-04-30 22:37 14.10688 -87.32774 6515 ft 176 kts 151°
2026-04-30 22:37 14.08634 -87.31590 6007 ft 163 kts 135°
2026-04-30 22:38 14.07267 -87.29804 5694 ft 164 kts 121°
2026-04-30 22:38 14.06051 -87.27831 5249 ft 159 kts 121°
2026-04-30 22:39 14.05463 -87.26920 4992 ft 151 kts 120°
2026-04-30 22:39 14.03915 -87.24130 4062 ft 151 kts 101°
2026-04-30 22:40 14.05680 -87.21859 3291 ft 149 kts 19°
2026-04-30 22:41 14.06583 -87.21628 3265 ft 10 kts 224°
2026-04-30 22:41 14.06461 -87.21677 3268 ft 9 kts 198°
2026-04-30 22:42 14.06230 -87.21757 3259 ft 8 kts 199°
2026-04-30 22:43 14.06125 -87.21794 3264 ft 8 kts 198°
2026-04-30 22:43 14.06049 -87.21839 3267 ft 5 kts 277°
2026-04-30 22:44 14.06061 -87.21873 3269 ft 0 kts 289°
2026-04-30 22:45 14.06063 -87.21879 3269 ft 0 kts 289°
2026-04-30 22:45 14.06062 -87.21879 3269 ft 0 kts 289°